User: anonymous   Login
Location: Bishop's University Astronomical Observatory
(45.3661°N, 71.8475°W)
Time: 18:14:10
(UTC-04:00)
Language:

Meteor 2-5 Rocket - Orbit

View from above orbital plane
View from above orbital plane
View from above satellite
View from above satellite

Ground track
Ground track

The orbit data is extracted from the following two-line orbital elements,

1 11608U 79095B   15086.96436689  .00000023  00000-0  70913-5 0  9997
2 11608 081.2111 279.1511 0053270 284.6609 074.8657 14.06054784815932
Epoch (UTC): 27 March 2015 23:08:41
Eccentricity: 0.0053270
inclination: 81.2111°
perigee height: 834 km
apogee height: 911 km
right ascension of ascending node: 279.1511°
argument of perigee: 284.6609°
revolutions per day: 14.06054784
mean anomaly at epoch: 74.8657°
orbit number at epoch: 81593

The dashed part of the orbit path shows where the satellite is in the earth's shadow,  

DLR